| time (UTC) | temp F | wind direction | speed knots | gust knots | rain 1hr in | rain 24hr in | rain mn in | humidity % | barometer mb |
| 20260509125558 | 37 | 0 | 0.0 | 0.0 | 0.00 | 0.00 | 0.00 | 68 | 1025.1 |
| 20260509125057 | 37 | 0 | 0.0 | 0.0 | 0.00 | 0.00 | 0.00 | 68 | 1025.0 |
| 20260509124607 | 37 | 0 | 0.0 | 0.0 | 0.00 | 0.00 | 0.00 | 68 | 1025.0 |
| 20260509124057 | 37 | 0 | 0.0 | 0.0 | 0.00 | 0.00 | 0.00 | 69 | 1025.0 |
| 20260509123557 | 37 | 0 | 0.0 | 0.9 | 0.00 | 0.00 | 0.00 | 69 | 1025.1 |
| 20260509123100 | 38 | 0 | 0.0 | 1.7 | 0.00 | 0.00 | 0.00 | 68 | 1025.0 |
| 20260509122557 | 38 | 0 | 0.0 | 1.7 | 0.00 | 0.00 | 0.00 | 66 | 1024.9 |
| 20260509122058 | 38 | 213 | 0.0 | 0.9 | 0.00 | 0.00 | 0.00 | 66 | 1024.9 |
| 20260509121602 | 39 | 0 | 0.0 | 0.0 | 0.00 | 0.00 | 0.00 | 66 | 1024.9 |
| 20260509121102 | 38 | 0 | 0.0 | 1.7 | 0.00 | 0.00 | 0.00 | 67 | 1024.8 |
| 20260509120558 | 38 | 0 | 0.0 | 1.7 | 0.00 | 0.00 | 0.00 | 66 | 1024.9 |
| 20260509120059 | 38 | 176 | 0.0 | 1.7 | 0.00 | 0.00 | 0.00 | 65 | 1024.9 |
| 20260509115557 | 39 | 141 | 0.9 | 1.7 | 0.00 | 0.00 | 0.00 | 64 | 1024.8 |
| 20260509115057 | 39 | 0 | 0.0 | 0.0 | 0.00 | 0.00 | 0.00 | 65 | 1024.9 |
| 20260509114604 | 39 | 0 | 0.0 | 0.9 | 0.00 | 0.00 | 0.00 | 63 | 1024.9 |
| 20260509114059 | 40 | 0 | 0.0 | 0.9 | 0.00 | 0.00 | 0.00 | 62 | 1024.9 |
| 20260509113558 | 40 | 0 | 0.0 | 0.9 | 0.00 | 0.00 | 0.00 | 62 | 1024.8 |
| 20260509113058 | 40 | 0 | 0.0 | 0.0 | 0.00 | 0.00 | 0.00 | 62 | 1024.8 |
| 20260509112559 | 40 | 0 | 0.0 | 0.9 | 0.00 | 0.00 | 0.00 | 61 | 1024.7 |
| 20260509112057 | 41 | 0 | 0.0 | 0.9 | 0.00 | 0.00 | 0.00 | 60 | 1024.6 |
| 20260509111559 | 41 | 0 | 0.0 | 0.9 | 0.00 | 0.00 | 0.00 | 60 | 1024.7 |
| 20260509111057 | 41 | 0 | 0.0 | 0.0 | 0.00 | 0.00 | 0.00 | 60 | 1024.7 |
| 20260509110557 | 41 | 0 | 0.0 | 0.0 | 0.00 | 0.00 | 0.00 | 61 | 1024.6 |
| 20260509110057 | 41 | 0 | 0.0 | 1.7 | 0.00 | 0.00 | 0.00 | 62 | 1024.6 |
| 20260509105558 | 41 | 0 | 0.0 | 1.7 | 0.00 | 0.00 | 0.00 | 62 | 1024.6 |
| 20260509105059 | 40 | 0 | 0.0 | 0.0 | 0.00 | 0.00 | 0.00 | 62 | 1024.6 |
| 20260509104558 | 41 | 0 | 0.0 | 0.9 | 0.00 | 0.00 | 0.00 | 61 | 1024.6 |
| 20260509104058 | 42 | 0 | 0.0 | 0.9 | 0.00 | 0.00 | 0.00 | 61 | 1024.5 |
| 20260509103558 | 42 | 0 | 0.0 | 0.9 | 0.00 | 0.00 | 0.00 | 61 | 1024.4 |
| 20260509103102 | 42 | 0 | 0.0 | 0.0 | 0.00 | 0.00 | 0.00 | 61 | 1024.4 |
| 20260509102559 | 42 | 0 | 0.0 | 0.9 | 0.00 | 0.00 | 0.00 | 61 | 1024.5 |
| 20260509102058 | 42 | 0 | 0.0 | 0.9 | 0.00 | 0.00 | 0.00 | 60 | 1024.6 |
| 20260509101559 | 42 | 186 | 0.0 | 0.9 | 0.00 | 0.00 | 0.00 | 60 | 1024.8 |
| 20260509101057 | 42 | 0 | 0.0 | 1.7 | 0.00 | 0.00 | 0.00 | 59 | 1024.7 |
| 20260509100557 | 43 | 0 | 0.0 | 1.7 | 0.00 | 0.00 | 0.00 | 58 | 1024.6 |
| 20260509095600 | 44 | 0 | 0.0 | 2.6 | 0.00 | 0.00 | 0.00 | 58 | 1024.4 |
| 20260509095057 | 44 | 169 | 0.9 | 2.6 | 0.00 | 0.00 | 0.00 | 58 | 1024.4 |
| 20260509094559 | 44 | 0 | 0.0 | 1.7 | 0.00 | 0.00 | 0.00 | 59 | 1024.5 |
| 20260509094059 | 44 | 0 | 0.0 | 1.7 | 0.00 | 0.00 | 0.00 | 60 | 1024.6 |
| 20260509093557 | 44 | 181 | 0.0 | 1.7 | 0.00 | 0.00 | 0.00 | 59 | 1024.7 |
| 20260509093100 | 44 | 0 | 0.0 | 1.7 | 0.00 | 0.00 | 0.00 | 59 | 1024.7 |
| 20260509092559 | 44 | 0 | 0.0 | 1.7 | 0.00 | 0.00 | 0.00 | 59 | 1024.7 |
| 20260509092102 | 45 | 0 | 0.0 | 1.7 | 0.00 | 0.00 | 0.00 | 59 | 1024.8 |
| 20260509091557 | 44 | 0 | 0.0 | 2.6 | 0.00 | 0.00 | 0.00 | 60 | 1024.8 |
| 20260509091059 | 44 | 0 | 0.0 | 2.6 | 0.00 | 0.00 | 0.00 | 59 | 1024.7 |
| 20260509090558 | 44 | 176 | 0.0 | 1.7 | 0.00 | 0.00 | 0.00 | 60 | 1024.7 |
| 20260509090056 | 44 | 0 | 0.0 | 1.7 | 0.00 | 0.00 | 0.00 | 59 | 1024.7 |
| 20260509085559 | 45 | 235 | 0.0 | 1.7 | 0.00 | 0.00 | 0.00 | 61 | 1024.7 |
| 20260509085058 | 45 | 0 | 0.0 | 1.7 | 0.00 | 0.00 | 0.00 | 62 | 1024.6 |
| 20260509084600 | 44 | 179 | 0.9 | 1.7 | 0.00 | 0.00 | 0.00 | 62 | 1024.7 |
| 20260509084058 | 44 | 0 | 0.0 | 0.9 | 0.00 | 0.00 | 0.00 | 62 | 1024.7 |
| 20260509083557 | 45 | 248 | 0.0 | 1.7 | 0.00 | 0.00 | 0.00 | 61 | 1024.7 |
| 20260509083105 | 45 | 0 | 0.0 | 1.7 | 0.00 | 0.00 | 0.00 | 61 | 1024.6 |
| 20260509082557 | 46 | 203 | 0.9 | 1.7 | 0.00 | 0.00 | 0.00 | 59 | 1024.6 |
| 20260509082057 | 46 | 168 | 0.0 | 1.7 | 0.00 | 0.00 | 0.00 | 59 | 1024.8 |
| 20260509081555 | 46 | 0 | 0.0 | 1.7 | 0.00 | 0.00 | 0.00 | 58 | 1024.7 |
| 20260509081057 | 46 | 0 | 0.0 | 2.6 | 0.00 | 0.00 | 0.00 | 60 | 1024.9 |
| 20260509080559 | 46 | 173 | 0.0 | 2.6 | 0.00 | 0.00 | 0.00 | 57 | 1024.9 |
| 20260509080100 | 46 | 169 | 0.0 | 1.7 | 0.00 | 0.00 | 0.00 | 58 | 1025.1 |
| 20260509075601 | 46 | 0 | 0.0 | 1.7 | 0.00 | 0.00 | 0.00 | 58 | 1025.1 |
| 20260509075058 | 46 | 188 | 0.0 | 1.7 | 0.00 | 0.00 | 0.00 | 59 | 1025.1 |
| 20260509074559 | 46 | 0 | 0.0 | 1.7 | 0.00 | 0.00 | 0.00 | 57 | 1025.1 |
| 20260509074057 | 46 | 224 | 0.0 | 1.7 | 0.00 | 0.00 | 0.00 | 60 | 1025.1 |
| 20260509073558 | 47 | 0 | 0.0 | 1.7 | 0.00 | 0.00 | 0.00 | 55 | 1024.8 |
| 20260509073059 | 47 | 172 | 0.0 | 1.7 | 0.00 | 0.00 | 0.00 | 61 | 1024.6 |
| 20260509072600 | 47 | 0 | 0.0 | 0.9 | 0.00 | 0.00 | 0.00 | 54 | 1024.7 |
| 20260509072059 | 47 | 0 | 0.0 | 0.9 | 0.00 | 0.00 | 0.00 | 54 | 1024.7 |
| 20260509071558 | 47 | 0 | 0.0 | 0.9 | 0.00 | 0.00 | 0.00 | 53 | 1024.6 |
| 20260509071058 | 47 | 0 | 0.0 | 0.9 | 0.00 | 0.00 | 0.00 | 54 | 1024.6 |
| 20260509070559 | 47 | 0 | 0.0 | 0.9 | 0.00 | 0.00 | 0.00 | 54 | 1024.5 |
| 20260509070057 | 48 | 0 | 0.0 | 0.9 | 0.00 | 0.00 | 0.00 | 56 | 1024.5 |
| 20260509065558 | 48 | 0 | 0.0 | 0.9 | 0.00 | 0.00 | 0.00 | 52 | 1024.5 |
| 20260509065058 | 48 | 0 | 0.0 | 0.9 | 0.00 | 0.00 | 0.00 | 51 | 1024.4 |
| 20260509064617 | 49 | 0 | 0.0 | 0.9 | 0.00 | 0.00 | 0.00 | 51 | 1024.4 |
| 20260509064058 | 49 | 0 | 0.0 | 0.0 | 0.00 | 0.00 | 0.00 | 52 | 1024.5 |
| 20260509063558 | 49 | 0 | 0.0 | 0.0 | 0.00 | 0.00 | 0.00 | 54 | 1024.6 |
| 20260509063059 | 49 | 0 | 0.0 | 0.0 | 0.00 | 0.00 | 0.00 | 54 | 1024.6 |
| 20260509062558 | 49 | 0 | 0.0 | 0.9 | 0.00 | 0.00 | 0.00 | 52 | 1024.6 |
| 20260509062101 | 49 | 0 | 0.0 | 1.7 | 0.00 | 0.00 | 0.00 | 52 | 1024.8 |
| 20260509061558 | 49 | 235 | 0.0 | 1.7 | 0.00 | 0.00 | 0.00 | 55 | 1024.7 |
| 20260509061057 | 49 | 179 | 0.9 | 2.6 | 0.00 | 0.00 | 0.00 | 57 | 1024.6 |
| 20260509060557 | 49 | 0 | 0.0 | 2.6 | 0.00 | 0.00 | 0.00 | 58 | 1024.8 |
| 20260509060108 | 49 | 177 | 0.9 | 2.6 | 0.00 | 0.00 | 0.00 | 58 | 1024.8 |
| 20260509055600 | 49 | 233 | 0.0 | 1.7 | 0.00 | 0.00 | 0.00 | 60 | 1024.8 |
| 20260509055101 | 49 | 0 | 0.0 | 1.7 | 0.00 | 0.00 | 0.00 | 61 | 1024.9 |
| 20260509054603 | 49 | 176 | 0.0 | 1.7 | 0.00 | 0.00 | 0.00 | 62 | 1024.7 |
| 20260509054101 | 51 | 167 | 0.0 | 1.7 | 0.00 | 0.00 | 0.00 | 61 | 1024.7 |
| 20260509053558 | 51 | 207 | 0.0 | 4.3 | 0.00 | 0.00 | 0.00 | 64 | 1024.9 |
| 20260509053108 | 51 | 0 | 0.0 | 4.3 | 0.00 | 0.00 | 0.00 | 61 | 1024.9 |
| 20260509052557 | 52 | 210 | 0.0 | 4.3 | 0.00 | 0.00 | 0.00 | 60 | 1024.7 |
| 20260509052058 | 51 | 0 | 0.9 | 1.7 | 0.00 | 0.00 | 0.00 | 64 | 1024.7 |
| 20260509051603 | 52 | 0 | 0.0 | 1.7 | 0.00 | 0.00 | 0.00 | 62 | 1024.7 |
| 20260509051058 | 52 | 166 | 0.0 | 0.9 | 0.00 | 0.00 | 0.00 | 63 | 1024.7 |
| 20260509050600 | 53 | 70 | 0.0 | 0.9 | 0.00 | 0.00 | 0.00 | 61 | 1024.5 |
| 20260509050105 | 53 | 0 | 0.0 | 0.9 | 0.00 | 0.00 | 0.00 | 63 | 1024.7 |
| 20260509045557 | 53 | 0 | 0.0 | 0.0 | 0.00 | 0.00 | 0.00 | 60 | 1024.7 |
| 20260509045057 | 54 | 0 | 0.0 | 0.0 | 0.00 | 0.00 | 0.00 | 61 | 1024.5 |
| 20260509044559 | 54 | 0 | 0.0 | 0.9 | 0.00 | 0.00 | 0.00 | 58 | 1024.7 |
| 20260509044058 | 55 | 0 | 0.0 | 0.9 | 0.00 | 0.00 | 0.00 | 55 | 1024.5 |
| 20260509043557 | 55 | 0 | 0.0 | 1.7 | 0.00 | 0.00 | 0.00 | 55 | 1024.6 |
| 20260509043101 | 56 | 0 | 0.0 | 1.7 | 0.00 | 0.00 | 0.00 | 55 | 1024.6 |
| 20260509042558 | 55 | 46 | 0.0 | 1.7 | 0.00 | 0.00 | 0.00 | 55 | 1024.4 |
| 20260509042058 | 56 | 0 | 0.0 | 0.9 | 0.00 | 0.00 | 0.00 | 53 | 1024.3 |
| 20260509041556 | 56 | 0 | 0.0 | 0.9 | 0.00 | 0.00 | 0.00 | 55 | 1024.3 |
| 20260509041058 | 57 | 199 | 0.0 | 0.9 | 0.00 | 0.00 | 0.00 | 51 | 1024.3 |
| 20260509040557 | 57 | 0 | 0.0 | 1.7 | 0.00 | 0.00 | 0.00 | 53 | 1024.3 |
| 20260509040100 | 57 | 0 | 0.0 | 1.7 | 0.00 | 0.00 | 0.00 | 51 | 1024.2 |
| 20260509035600 | 57 | 237 | 0.9 | 1.7 | 0.00 | 0.00 | 0.00 | 53 | 1024.3 |
| 20260509035100 | 58 | 0 | 0.0 | 1.7 | 0.00 | 0.00 | 0.00 | 56 | 1024.0 |
| 20260509034558 | 58 | 0 | 0.0 | 1.7 | 0.00 | 0.00 | 0.00 | 52 | 1023.9 |
| 20260509034057 | 58 | 82 | 0.0 | 1.7 | 0.00 | 0.00 | 0.00 | 53 | 1024.0 |
| 20260509033600 | 58 | 169 | 0.0 | 5.2 | 0.00 | 0.00 | 0.00 | 51 | 1023.8 |
| 20260509033109 | 59 | 0 | 0.0 | 6.1 | 0.00 | 0.00 | 0.00 | 51 | 1023.7 |
| 20260509032558 | 59 | 60 | 3.5 | 7.0 | 0.00 | 0.00 | 0.00 | 51 | 1023.6 |
| 20260509032058 | 59 | 69 | 5.2 | 7.0 | 0.00 | 0.00 | 0.00 | 53 | 1023.5 |
| 20260509031605 | 59 | 83 | 0.0 | 3.5 | 0.00 | 0.00 | 0.00 | 32 | 1023.3 |
| 20260509031058 | 60 | 0 | 0.9 | 3.5 | 0.00 | 0.00 | 0.00 | 31 | 1023.1 |
| 20260509030558 | 61 | 161 | 0.0 | 1.7 | 0.00 | 0.00 | 0.00 | 30 | 1023.1 |
| 20260509030057 | 62 | 191 | 0.0 | 0.9 | 0.00 | 0.00 | 0.00 | 27 | 1023.2 |
| 20260509025557 | 63 | 0 | 0.0 | 2.6 | 0.00 | 0.00 | 0.00 | 26 | 1023.1 |
| 20260509025102 | 64 | 0 | 0.0 | 2.6 | 0.00 | 0.00 | 0.00 | 26 | 1023.0 |
| 20260509024555 | 64 | 314 | 0.0 | 2.6 | 0.00 | 0.00 | 0.00 | 28 | 1022.9 |
| 20260509024059 | 65 | 0 | 0.9 | 2.6 | 0.00 | 0.00 | 0.00 | 32 | 1022.9 |
| 20260509023558 | 65 | 311 | 0.0 | 3.5 | 0.00 | 0.00 | 0.00 | 32 | 1022.9 |
| 20260509023106 | 66 | 0 | 0.9 | 3.5 | 0.00 | 0.00 | 0.00 | 27 | 1022.9 |
| 20260509022558 | 66 | 7 | 0.0 | 3.5 | 0.00 | 0.00 | 0.00 | 28 | 1022.9 |
| 20260509022058 | 66 | 13 | 0.0 | 2.6 | 0.00 | 0.00 | 0.00 | 26 | 1022.9 |
| 20260509021559 | 67 | 336 | 0.0 | 1.7 | 0.00 | 0.00 | 0.00 | 27 | 1022.9 |
| 20260509021102 | 68 | 23 | 0.0 | 1.7 | 0.00 | 0.00 | 0.00 | 23 | 1022.7 |
| 20260509020557 | 68 | 20 | 0.0 | 3.5 | 0.00 | 0.00 | 0.00 | 22 | 1022.7 |
| 20260509020057 | 68 | 252 | 0.9 | 4.3 | 0.00 | 0.00 | 0.00 | 23 | 1022.7 |
| 20260509015558 | 69 | 0 | 0.0 | 4.3 | 0.00 | 0.00 | 0.00 | 23 | 1022.6 |
| 20260509015059 | 69 | 0 | 0.0 | 3.5 | 0.00 | 0.00 | 0.00 | 22 | 1022.6 |
| 20260509014555 | 70 | 55 | 0.0 | 6.1 | 0.00 | 0.00 | 0.00 | 22 | 1022.6 |
| 20260509014058 | 71 | 248 | 0.0 | 6.1 | 0.00 | 0.00 | 0.00 | 21 | 1022.5 |
| 20260509013558 | 72 | 200 | 0.0 | 1.7 | 0.00 | 0.00 | 0.00 | 20 | 1022.6 |
| 20260509013109 | 72 | 143 | 0.0 | 6.1 | 0.00 | 0.00 | 0.00 | 19 | 1022.4 |
| 20260509012558 | 73 | 77 | 0.9 | 6.1 | 0.00 | 0.00 | 0.00 | 19 | 1022.5 |
| 20260509012058 | 73 | 0 | 0.9 | 5.2 | 0.00 | 0.00 | 0.00 | 19 | 1022.5 |
| 20260509011559 | 73 | 309 | 1.7 | 6.1 | 0.00 | 0.00 | 0.00 | 18 | 1022.6 |
| 20260509011057 | 73 | 272 | 0.9 | 6.1 | 0.00 | 0.00 | 0.00 | 18 | 1022.5 |
| 20260509010601 | 73 | 265 | 0.9 | 5.2 | 0.00 | 0.00 | 0.00 | 18 | 1022.6 |
| 20260509010059 | 74 | 0 | 0.9 | 7.0 | 0.00 | 0.00 | 0.00 | 18 | 1022.6 |
| 20260509005559 | 74 | 330 | 0.9 | 7.0 | 0.00 | 0.00 | 0.00 | 19 | 1022.6 |
| 20260509005058 | 74 | 0 | 1.7 | 7.8 | 0.00 | 0.00 | 0.00 | 19 | 1022.6 |
| 20260509004628 | 74 | 295 | 0.9 | 8.7 | 0.00 | 0.00 | 0.00 | 19 | 1022.5 |
| 20260509004058 | 74 | 246 | 1.7 | 8.7 | 0.00 | 0.00 | 0.00 | 18 | 1022.6 |
| 20260509003558 | 75 | 111 | 0.0 | 7.8 | 0.00 | 0.00 | 0.00 | 19 | 1022.6 |
| 20260509003102 | 75 | 96 | 0.9 | 7.8 | 0.00 | 0.00 | 0.00 | 18 | 1022.6 |
| 20260509002558 | 75 | 349 | 0.9 | 5.2 | 0.00 | 0.00 | 0.00 | 18 | 1022.6 |
| 20260509002058 | 76 | 55 | 0.0 | 5.2 | 0.00 | 0.00 | 0.00 | 18 | 1022.6 |
| 20260509001601 | 76 | 113 | 0.0 | 5.2 | 0.00 | 0.00 | 0.00 | 18 | 1022.8 |
| 20260509001058 | 76 | 0 | 0.0 | 5.2 | 0.00 | 0.00 | 0.00 | 17 | 1022.7 |
| 20260509000602 | 76 | 62 | 0.9 | 5.2 | 0.00 | 0.00 | 0.00 | 18 | 1022.8 |
| 20260508235558 | 76 | 314 | 0.9 | 8.7 | 0.00 | 0.00 | 0.00 | 17 | 1022.7 |
| 20260508235058 | 76 | 137 | 0.9 | 8.7 | 0.00 | 0.00 | 0.00 | 16 | 1022.8 |
| 20260508234558 | 76 | 117 | 1.7 | 8.7 | 0.00 | 0.00 | 0.00 | 17 | 1022.9 |
| 20260508234059 | 76 | 117 | 2.6 | 8.7 | 0.00 | 0.00 | 0.00 | 15 | 1022.9 |
| 20260508233558 | 76 | 217 | 1.7 | 7.8 | 0.00 | 0.00 | 0.00 | 15 | 1023.0 |
| 20260508233134 | 76 | 130 | 1.7 | 7.8 | 0.00 | 0.00 | 0.00 | 15 | 1022.9 |
| 20260508232558 | 77 | 238 | 0.9 | 5.2 | 0.00 | 0.00 | 0.00 | 14 | 1023.0 |
| 20260508232058 | 77 | 98 | 0.9 | 4.3 | 0.00 | 0.00 | 0.00 | 16 | 1023.0 |
| 20260508231558 | 77 | 124 | 0.9 | 7.8 | 0.00 | 0.00 | 0.00 | 15 | 1023.0 |
| 20260508231058 | 77 | 30 | 0.9 | 7.8 | 0.00 | 0.00 | 0.00 | 13 | 1023.0 |
| 20260508230558 | 77 | 163 | 1.7 | 7.0 | 0.00 | 0.00 | 0.00 | 14 | 1022.9 |
| 20260508230101 | 77 | 4 | 1.7 | 9.6 | 0.00 | 0.00 | 0.00 | 13 | 1022.9 |
| 20260508225558 | 77 | 215 | 0.9 | 9.6 | 0.00 | 0.00 | 0.00 | 13 | 1023.0 |
| 20260508225058 | 77 | 101 | 0.9 | 9.6 | 0.00 | 0.00 | 0.00 | 14 | 1023.1 |
| 20260508224621 | 77 | 0 | 0.0 | 6.1 | 0.00 | 0.00 | 0.00 | 11 | 1023.1 |
| 20260508224058 | 78 | 44 | 0.9 | 6.1 | 0.00 | 0.00 | 0.00 | 10 | 1022.9 |
| 20260508223559 | 78 | 130 | 1.7 | 7.8 | 0.00 | 0.00 | 0.00 | 13 | 1023.0 |
| 20260508223110 | 78 | 284 | 0.9 | 7.8 | 0.00 | 0.00 | 0.00 | 11 | 1023.1 |
| 20260508222558 | 78 | 289 | 0.9 | 7.0 | 0.00 | 0.00 | 0.00 | 11 | 1023.1 |
| 20260508222059 | 78 | 0 | 0.9 | 5.2 | 0.00 | 0.00 | 0.00 | 11 | 1023.1 |
| 20260508221610 | 78 | 107 | 0.9 | 5.2 | 0.00 | 0.00 | 0.00 | 12 | 1023.1 |
| 20260508221058 | 78 | 32 | 0.9 | 5.2 | 0.00 | 0.00 | 0.00 | 12 | 1023.1 |
| 20260508220607 | 78 | 231 | 1.7 | 5.2 | 0.00 | 0.00 | 0.00 | 10 | 1023.1 |
| 20260508220059 | 78 | 68 | 1.7 | 6.1 | 0.00 | 0.00 | 0.00 | 12 | 1022.9 |
| 20260508215558 | 78 | 105 | 2.6 | 6.1 | 0.00 | 0.00 | 0.00 | 12 | 1023.1 |
| 20260508215058 | 78 | 182 | 2.6 | 6.1 | 0.00 | 0.00 | 0.00 | 11 | 1023.1 |
| 20260508214559 | 78 | 152 | 2.6 | 5.2 | 0.00 | 0.00 | 0.00 | 9 | 1023.1 |
| 20260508214058 | 78 | 117 | 0.9 | 4.3 | 0.00 | 0.00 | 0.00 | 10 | 1023.2 |
| 20260508213559 | 78 | 252 | 1.7 | 7.8 | 0.00 | 0.00 | 0.00 | 11 | 1023.4 |
| 20260508213057 | 78 | 210 | 0.0 | 7.8 | 0.00 | 0.00 | 0.00 | 9 | 1023.3 |
| 20260508212558 | 79 | 172 | 2.6 | 7.0 | 0.00 | 0.00 | 0.00 | 10 | 1023.2 |
| 20260508212057 | 79 | 254 | 0.9 | 4.3 | 0.00 | 0.00 | 0.00 | 12 | 1023.3 |
| 20260508211555 | 78 | 0 | 1.7 | 7.8 | 0.00 | 0.00 | 0.00 | 9 | 1023.4 |
| 20260508211058 | 78 | 226 | 2.6 | 7.8 | 0.00 | 0.00 | 0.00 | 10 | 1023.6 |
| 20260508210558 | 78 | 61 | 1.7 | 7.8 | 0.00 | 0.00 | 0.00 | 12 | 1023.7 |
| 20260508210058 | 78 | 292 | 1.7 | 9.6 | 0.00 | 0.00 | 0.00 | 10 | 1023.6 |
| 20260508205559 | 78 | 169 | 2.6 | 9.6 | 0.00 | 0.00 | 0.00 | 9 | 1023.7 |
| 20260508205058 | 78 | 284 | 2.6 | 7.0 | 0.00 | 0.00 | 0.00 | 10 | 1023.8 |
| 20260508204558 | 79 | 243 | 1.7 | 7.0 | 0.00 | 0.00 | 0.00 | 10 | 1023.8 |
| 20260508204101 | 79 | 158 | 0.9 | 7.0 | 0.00 | 0.00 | 0.00 | 10 | 1023.9 |
| 20260508203558 | 79 | 240 | 1.7 | 7.0 | 0.00 | 0.00 | 0.00 | 9 | 1023.9 |
| 20260508203100 | 79 | 207 | 0.9 | 4.3 | 0.00 | 0.00 | 0.00 | 10 | 1023.8 |
| 20260508202559 | 78 | 270 | 1.7 | 5.2 | 0.00 | 0.00 | 0.00 | 10 | 1023.9 |
| 20260508202058 | 78 | 60 | 0.9 | 5.2 | 0.00 | 0.00 | 0.00 | 11 | 1023.9 |
| 20260508201558 | 77 | 288 | 0.9 | 5.2 | 0.00 | 0.00 | 0.00 | 10 | 1024.0 |
| 20260508201058 | 77 | 306 | 0.9 | 5.2 | 0.00 | 0.00 | 0.00 | 11 | 1023.9 |
| 20260508200558 | 77 | 55 | 0.9 | 5.2 | 0.00 | 0.00 | 0.00 | 12 | 1024.0 |
| 20260508200111 | 75 | 313 | 0.9 | 7.0 | 0.00 | 0.00 | 0.00 | 12 | 1024.1 |
| 20260508195558 | 75 | 54 | 1.7 | 7.0 | 0.00 | 0.00 | 0.00 | 11 | 1024.1 |
| 20260508195058 | 75 | 71 | 3.5 | 6.1 | 0.00 | 0.00 | 0.00 | 12 | 1024.1 |
| 20260508194605 | 75 | 51 | 1.7 | 7.0 | 0.00 | 0.00 | 0.00 | 11 | 1024.1 |
| 20260508194057 | 75 | 34 | 2.6 | 7.0 | 0.00 | 0.00 | 0.00 | 13 | 1024.2 |
| 20260508193558 | 75 | 258 | 2.6 | 6.1 | 0.00 | 0.00 | 0.00 | 12 | 1024.3 |
| 20260508193105 | 75 | 307 | 2.6 | 8.7 | 0.00 | 0.00 | 0.00 | 12 | 1024.3 |
| 20260508192600 | 75 | 354 | 2.6 | 8.7 | 0.00 | 0.00 | 0.00 | 13 | 1024.3 |
| 20260508192059 | 74 | 56 | 3.5 | 8.7 | 0.00 | 0.00 | 0.00 | 12 | 1024.3 |
| 20260508191557 | 74 | 264 | 2.6 | 6.1 | 0.00 | 0.00 | 0.00 | 14 | 1024.4 |
| 20260508191058 | 74 | 43 | 2.6 | 6.1 | 0.00 | 0.00 | 0.00 | 13 | 1024.5 |
| 20260508190559 | 74 | 56 | 1.7 | 6.1 | 0.00 | 0.00 | 0.00 | 13 | 1024.6 |
| 20260508190132 | 73 | 358 | 2.6 | 7.0 | 0.00 | 0.00 | 0.00 | 12 | 1024.5 |
| 20260508185557 | 73 | 30 | 2.6 | 7.0 | 0.00 | 0.00 | 0.00 | 13 | 1024.4 |
| 20260508185058 | 73 | 358 | 3.5 | 7.0 | 0.00 | 0.00 | 0.00 | 12 | 1024.5 |
| 20260508184559 | 74 | 44 | 1.7 | 4.3 | 0.00 | 0.00 | 0.00 | 14 | 1024.6 |
| 20260508184100 | 74 | 333 | 1.7 | 5.2 | 0.00 | 0.00 | 0.00 | 13 | 1024.7 |
| 20260508183557 | 73 | 357 | 0.9 | 6.1 | 0.00 | 0.00 | 0.00 | 16 | 1024.7 |
| 20260508183103 | 71 | 20 | 3.5 | 6.1 | 0.00 | 0.00 | 0.00 | 16 | 1024.8 |
| 20260508182557 | 72 | 43 | 2.6 | 7.0 | 0.00 | 0.00 | 0.00 | 17 | 1025.0 |
| 20260508182058 | 72 | 55 | 1.7 | 7.0 | 0.00 | 0.00 | 0.00 | 16 | 1024.9 |
| 20260508181558 | 72 | 39 | 2.6 | 6.1 | 0.00 | 0.00 | 0.00 | 15 | 1025.0 |
| 20260508181058 | 72 | 27 | 0.9 | 4.3 | 0.00 | 0.00 | 0.00 | 15 | 1025.0 |
| 20260508180558 | 71 | 287 | 1.7 | 6.1 | 0.00 | 0.00 | 0.00 | 15 | 1024.9 |
| 20260508180104 | 70 | 77 | 1.7 | 6.1 | 0.00 | 0.00 | 0.00 | 17 | 1025.0 |
| 20260508175558 | 69 | 63 | 2.6 | 6.1 | 0.00 | 0.00 | 0.00 | 19 | 1025.2 |
| 20260508175101 | 69 | 87 | 1.7 | 8.7 | 0.00 | 0.00 | 0.00 | 19 | 1025.2 |
| 20260508174612 | 69 | 70 | 2.6 | 8.7 | 0.00 | 0.00 | 0.00 | 17 | 1025.3 |
| 20260508174057 | 69 | 32 | 0.9 | 5.2 | 0.00 | 0.00 | 0.00 | 18 | 1025.4 |
| 20260508173558 | 68 | 23 | 2.6 | 5.2 | 0.00 | 0.00 | 0.00 | 17 | 1025.5 |
| 20260508173059 | 70 | 55 | 1.7 | 3.5 | 0.00 | 0.00 | 0.00 | 19 | 1025.5 |
| 20260508172603 | 70 | 348 | 1.7 | 4.3 | 0.00 | 0.00 | 0.00 | 20 | 1025.4 |
| 20260508172058 | 69 | 30 | 1.7 | 4.3 | 0.00 | 0.00 | 0.00 | 21 | 1025.3 |
| 20260508171601 | 69 | 46 | 0.0 | 3.5 | 0.00 | 0.00 | 0.00 | 21 | 1025.5 |
| 20260508171100 | 68 | 27 | 0.9 | 3.5 | 0.00 | 0.00 | 0.00 | 23 | 1025.3 |
| 20260508170558 | 67 | 0 | 0.0 | 3.5 | 0.00 | 0.00 | 0.00 | 21 | 1025.6 |
| 20260508170059 | 66 | 333 | 1.7 | 4.3 | 0.00 | 0.00 | 0.00 | 22 | 1025.5 |
| 20260508165558 | 65 | 66 | 1.7 | 4.3 | 0.00 | 0.00 | 0.00 | 24 | 1025.5 |
| 20260508165058 | 65 | 44 | 0.9 | 4.3 | 0.00 | 0.00 | 0.00 | 24 | 1025.6 |
| 20260508164556 | 64 | 337 | 0.9 | 6.1 | 0.00 | 0.00 | 0.00 | 25 | 1025.5 |
| 20260508164057 | 62 | 52 | 3.5 | 6.1 | 0.00 | 0.00 | 0.00 | 28 | 1025.6 |
| 20260508163601 | 62 | 56 | 3.5 | 6.1 | 0.00 | 0.00 | 0.00 | 29 | 1025.6 |
| 20260508163111 | 62 | 60 | 0.9 | 3.5 | 0.00 | 0.00 | 0.00 | 33 | 1025.6 |
| 20260508162558 | 62 | 342 | 1.7 | 3.5 | 0.00 | 0.00 | 0.00 | 32 | 1025.6 |
| 20260508162101 | 61 | 46 | 0.9 | 3.5 | 0.00 | 0.00 | 0.00 | 34 | 1025.7 |
| 20260508161559 | 61 | 46 | 0.9 | 2.6 | 0.00 | 0.00 | 0.00 | 38 | 1025.8 |
| 20260508161104 | 61 | 50 | 0.9 | 3.5 | 0.00 | 0.00 | 0.00 | 35 | 1025.7 |
| 20260508160600 | 60 | 63 | 0.0 | 3.5 | 0.00 | 0.00 | 0.00 | 39 | 1025.8 |
| 20260508160115 | 58 | 74 | 1.7 | 3.5 | 0.00 | 0.00 | 0.00 | 40 | 1025.8 |
| 20260508155558 | 58 | 55 | 0.9 | 3.5 | 0.00 | 0.00 | 0.00 | 43 | 1025.9 |
| 20260508155058 | 57 | 51 | 0.9 | 3.5 | 0.00 | 0.00 | 0.00 | 44 | 1025.8 |
| 20260508154603 | 56 | 78 | 1.7 | 3.5 | 0.00 | 0.00 | 0.00 | 43 | 1025.8 |
| 20260508154058 | 56 | 82 | 1.7 | 2.6 | 0.00 | 0.00 | 0.00 | 49 | 1025.8 |
| 20260508153601 | 54 | 82 | 1.7 | 1.7 | 0.00 | 0.00 | 0.00 | 59 | 1025.8 |
| 20260508153058 | 54 | 72 | 0.0 | 0.9 | 0.00 | 0.00 | 0.00 | 65 | 1025.8 |
| 20260508152559 | 53 | 0 | 0.0 | 2.6 | 0.00 | 0.00 | 0.00 | 67 | 1025.7 |
| 20260508152059 | 52 | 82 | 0.9 | 2.6 | 0.00 | 0.00 | 0.00 | 69 | 1025.7 |
| 20260508151602 | 50 | 43 | 0.0 | 2.6 | 0.00 | 0.00 | 0.00 | 71 | 1025.7 |
| 20260508151059 | 49 | 64 | 0.0 | 2.6 | 0.00 | 0.00 | 0.00 | 70 | 1025.7 |
| 20260508150557 | 49 | 0 | 0.0 | 0.9 | 0.00 | 0.00 | 0.00 | 73 | 1025.7 |
| 20260508150057 | 48 | 0 | 0.0 | 0.9 | 0.00 | 0.00 | 0.00 | 74 | 1025.8 |
| 20260508145601 | 47 | 0 | 0.0 | 0.0 | 0.00 | 0.00 | 0.00 | 76 | 1026.0 |
| 20260508145102 | 46 | 0 | 0.0 | 0.0 | 0.00 | 0.00 | 0.00 | 78 | 1026.0 |
| 20260508144556 | 45 | 0 | 0.0 | 0.0 | 0.00 | 0.00 | 0.00 | 78 | 1025.9 |
| 20260508144057 | 45 | 0 | 0.0 | 0.0 | 0.00 | 0.00 | 0.00 | 79 | 1025.8 |
| 20260508143558 | 45 | 0 | 0.0 | 0.0 | 0.00 | 0.00 | 0.00 | 80 | 1025.7 |
| 20260508143101 | 44 | 0 | 0.0 | 0.0 | 0.00 | 0.00 | 0.00 | 80 | 1025.8 |
| 20260508142558 | 43 | 0 | 0.0 | 0.0 | 0.00 | 0.00 | 0.00 | 81 | 1025.7 |
| 20260508142100 | 43 | 0 | 0.0 | 0.0 | 0.00 | 0.00 | 0.00 | 80 | 1025.7 |
| 20260508141559 | 43 | 0 | 0.0 | 0.0 | 0.00 | 0.00 | 0.00 | 81 | 1025.7 |
| 20260508141058 | 42 | 0 | 0.0 | 0.0 | 0.00 | 0.00 | 0.00 | 81 | 1025.6 |
| 20260508140558 | 41 | 0 | 0.0 | 0.0 | 0.00 | 0.00 | 0.00 | 84 | 1025.6 |
| 20260508140110 | 40 | 0 | 0.0 | 0.0 | 0.00 | 0.00 | 0.00 | 84 | 1025.5 |
| 20260508135558 | 39 | 0 | 0.0 | 0.0 | 0.00 | 0.00 | 0.00 | 90 | 1025.5 |
| 20260508135058 | 37 | 0 | 0.0 | 0.0 | 0.00 | 0.00 | 0.00 | 92 | 1025.5 |
| 20260508134557 | 35 | 0 | 0.0 | 0.0 | 0.00 | 0.00 | 0.00 | 92 | 1025.4 |
| 20260508134057 | 34 | 0 | 0.0 | 0.0 | 0.00 | 0.00 | 0.00 | 92 | 1025.3 |
| 20260508133601 | 34 | 0 | 0.0 | 0.0 | 0.00 | 0.00 | 0.00 | 91 | 1025.5 |
| 20260508133100 | 34 | 0 | 0.0 | 0.0 | 0.00 | 0.00 | 0.00 | 90 | 1025.3 |
| 20260508132557 | 34 | 0 | 0.0 | 0.0 | 0.00 | 0.00 | 0.00 | 90 | 1025.3 |
| 20260508132058 | 34 | 0 | 0.0 | 0.9 | 0.00 | 0.00 | 0.00 | 91 | 1025.3 |
| 20260508131600 | 34 | 0 | 0.0 | 0.9 | 0.00 | 0.00 | 0.00 | 90 | 1025.2 |
| 20260508131058 | 34 | 168 | 0.0 | 0.0 | 0.00 | 0.00 | 0.00 | 90 | 1025.3 |
| 20260508130602 | 34 | 0 | 0.0 | 0.0 | 0.00 | 0.00 | 0.00 | 89 | 1025.2 |
| 20260508130106 | 35 | 0 | 0.0 | 0.0 | 0.00 | 0.00 | 0.00 | 90 | 1025.1 |